DELTA 1 DEB, 18463

Orbit data source: Space-Track

DELTA 1 DEB, 18463 is space debris in SSO originally from a launch on Thu, 29 Jul 1976 UTC launched from the Air Force Western Test Range (AFWTR). Debris objects in space refer to the collection of defunct objects orbiting the Earth. Examples of debris include non-operational satellites, rocket bodies, and fragments generated from explosions, collisions, or faulty payload assembly.

Loading next visibility...
Identifier
18463, 1976-077FA
Orbit
SSO
Country
Flag of USUS
Related business
Manufacturer
Unknown
Mission
Spacecraft
Bus & Motor
Unknown
Mass
Unknown
Launch date (UTC)
1976-07-29 (50 years ago)
Launch vehicle
Unknown
Launch site
Air Force Western Test Range (AFWTR)
Object type
Payload
Rocket body
Debris
Shape & HBR
Unknown shape, 0.1 m
Radar Cross Section
Small (<0.1 m²)

Expand to show TLE details & history
Last TLE update: 2 days ago

TLE from 2 days ago
0 DELTA 1 DEB
1 18463U 76077FA  26035.38029485 -.00000020  00000-0  23018-3 0  9994
2 18463 102.5725  10.4333 0093351 141.3165  16.1597 12.23617296212151
Epoch: 2026-02-04T09:07Z
TLE epoch observation values (Epoch: 2026-02-04T09:07:37.475Z)
Latitude
21.67651°
Longitude
-75.95982°
Altitude
1,507.822 km
Speed
7.144 km/s
True Right ascension
13h 01m 58s
True Declination
21° 34' 12"
Sunlit
Object was in daylight at epoch
Visualization orbit readout
Latitude
Unknown
Longitude
Unknown
Altitude
Unknown
Speed
Unknown
Apparent Right ascension
Unknown
Apparent Declination
Unknown
Sunlit
N/A
Visualization observer readout
Local Sidereal Time
23:57:02
Azimuth
Unknown
Elevation
Unknown
Doppler factor
Unknown
Orbital elements
Apogee altitude
1,648.694 km
Perigee altitude
1,500.217 km
Semi-major axis
7,952.592 km
Eccentricity
0.00934
Inclination
102.5725°
RAAN
10.4333°
Arg. of periapsis
141.3165°
True anomaly
16.46079°
Mean anomaly
16.1597°
Eccentric anomaly
16.30991°
Mean motion
3.06041 °/min
Orbital period
117.63 mins
BSTAR
0.00023018
Loading maneuver chart data...
Computing Atmospheric mass density...
Loading historical data...
Loading historical data...
Loading historical data...
Loading historical data...
Loading historical data...
Loading historical data...
Loading historical data...

Documentation

Showing up to 5 results
|